📊 Raw Sensor Data

Showing records 46626 to 46650 of 85,073 total

ID Distance (ft) Battery V Battery A Int Temp (°F) Int Humid (%) Ext Temp (°F) Solar V RSSI SNR Time Stamp
38460 -- 3.98 6 95 43 85 5.10 -87 8 04/21/2025 05:01 PM
38459 -- 3.96 6 95 43 85 5.10 -85 8 04/21/2025 04:45 PM
38458 -- 3.96 6 96 42 84 5.10 -86 8 04/21/2025 04:31 PM
38457 -- 3.96 6 96 41 84 5.10 -85 9 04/21/2025 04:15 PM
38456 -- 3.96 6 96 41 84 5.10 -85 8 04/21/2025 04:00 PM
38455 -- 3.96 6 95 40 83 5.10 -87 8 04/21/2025 03:45 PM
38454 -- 3.96 6 95 40 85 5.10 -83 9 04/21/2025 03:30 PM
38453 -- 3.96 6 94 39 83 5.10 -86 8 04/21/2025 03:15 PM
38452 -- 4.12 5 93 39 81 5.10 -83 9 04/21/2025 03:01 PM
38451 -- 3.96 6 93 38 82 5.10 -85 8 04/21/2025 02:46 PM
38450 -- 3.96 6 91 38 80 5.10 -85 8 04/21/2025 02:30 PM
38449 -- 3.96 6 90 38 80 5.10 -84 9 04/21/2025 02:15 PM
38448 -- 3.96 6 88 38 78 5.10 -86 7 04/21/2025 02:00 PM
38447 -- 3.96 6 86 38 77 5.10 -91 7 04/21/2025 01:45 PM
38446 -- 3.95 6 85 39 77 5.10 -90 9 04/21/2025 01:30 PM
38445 -- 3.95 0 83 39 76 5.10 -90 8 04/21/2025 01:15 PM
38444 -- 4.12 5 82 39 75 5.10 -89 8 04/21/2025 01:00 PM
38443 -- 3.95 6 81 39 76 5.10 -94 8 04/21/2025 12:45 PM
38442 -- 3.95 6 80 39 74 5.10 -91 8 04/21/2025 12:30 PM
38441 -- 3.95 0 78 39 74 5.10 -87 8 04/21/2025 12:15 PM
38440 -- 3.95 6 77 39 74 5.10 -89 7 04/21/2025 12:00 PM
38439 -- 4.11 6 77 39 73 5.10 -90 8 04/21/2025 11:45 AM
38438 -- 3.95 0 74 38 69 5.10 -96 6 04/21/2025 11:15 AM
38437 -- 3.95 0 73 38 71 5.10 -86 8 04/21/2025 11:00 AM
38436 -- 3.95 6 71 38 70 5.10 -84 9 04/21/2025 10:45 AM